Hourly Data Report for June 13, 2021

CARIBOU POINT (AUT)
NOVA SCOTIA
Current Station Operator: ECCC - MSC

45°46'00.000" N
62°41'00.000" W
2.40 m
8200774
71415
WBK

Download Data

Hourly Data (June 2021)
Hourly Data Report for June 13, 2021
TIME
LST
Temp Definition
°C
Dew Point Definition
°C
Rel Hum Definition
%
Precip. Amount Definition
mm

Wind Dir Definition
10's deg

Wind Spd Definition
km/h
Visibility Definition
km
Stn Press Definition
kPa
Hmdx Definition


Wind Chill Definition


Weather Definition


00:00 11.4 3.3 57 0.0 22 16   100.70     LegendNANA
01:00 10.9 3.3 59 0.0 24 7   100.74     LegendNANA
02:00 10.4 3.9 64 0.0 19 3   100.76     LegendNANA
03:00 9.8 3.9 67 0.0 20 7   100.71     LegendNANA
04:00 9.2 4.2 71 0.0 23 9   100.70     LegendNANA
05:00 9.4 5.2 75 0.0 23 6   100.72     LegendNANA
06:00 11.0 6.3 73 0.0 25 3   100.74     LegendNANA
07:00 13.8 9.7 76 0.0 29 15   100.77     LegendNANA
08:00 12.8 11.2 90 0.0 29 24   100.82     LegendNANA
09:00 14.1 11.7 86 0.0 29 21   100.83     LegendNANA
10:00 15.2 12.3 83 0.0 29 26   100.89     LegendNANA
11:00 15.5 12.1 80 0.0 30 22   100.93     LegendNANA
12:00 16.2 11.0 71 0.0 36 5   100.99     LegendNANA
13:00 15.9 11.0 73 0.0 10 15   101.05     LegendNANA
14:00 16.1 11.1 72 0.0 6 7   101.13     LegendNANA
15:00 15.9 11.4 75 0.0 10 7   101.19     LegendNANA
16:00 15.6 11.2 75 0.0 9 7   101.25     LegendNANA
17:00 15.0 9.9 72 0.0 12 11   101.28     LegendNANA
18:00 14.1 9.8 75 0.0 12 14   101.31     LegendNANA
19:00 13.5 8.5 72 0.0 12 12   101.35     LegendNANA
20:00 12.8 8.2 73 0.0 11 13   101.42     LegendNANA
21:00 12.2 6.4 68 0.0 8 11   101.48     LegendNANA
22:00 12.4 6.2 66 0.0 7 14   101.47     LegendNANA
23:00 12.2 7.4 73 0.0 9 16   101.51     LegendNANA

Notes on Data Quality.

Legend

  • E = Estimated
  • M = Missing
  • NA = Not Available*
  • [empty] = Indicates an unobserved value
Date modified: